• In Deutschland
  • Länderverzeichnis
  • Für 7 Tage
  • Wassertemperatur
  • Satellitenkarten
  • Wetterkarte
  • Widgets
  • user-avatar
    Anmelden

    Stündliche Wetter Puke

    Heute, 27 April, Freitag

    Zeit Temperatur Niederschläge Wind Luftdruck Luftfeuchtigkeit
    00:00 +14°C° 0 mm 1 m/S 690 mmHg 62%
    01:00 +14°C° 0 mm 1 m/S 690 mmHg 61%
    02:00 +13°C° 0 mm 1 m/S 690 mmHg 62%
    03:00 +13°C° 0 mm 2 m/S 691 mmHg 62%
    04:00 +13°C° 0 mm 2 m/S 691 mmHg 63%
    05:00 +14°C° 0 mm 2 m/S 691 mmHg 64%
    06:00 +15°C° 0 mm 2 m/S 692 mmHg 65%
    07:00 +17°C° 0 mm 2 m/S 692 mmHg 66%
    08:00 +18°C° 0 mm 2 m/S 692 mmHg 63%
    09:00 +19°C° 0 mm 2 m/S 692 mmHg 60%
    10:00 +21°C° 0 mm 2 m/S 693 mmHg 56%
    11:00 +21°C° 0 mm 2 m/S 693 mmHg 54%
    12:00 +23°C° 0 mm 2 m/S 693 mmHg 52%
    13:00 +24°C° 0 mm 2 m/S 692 mmHg 50%
    14:00 +24°C° 0,1 mm 2 m/S 692 mmHg 51%
    15:00 +24°C° 0,1 mm 2 m/S 692 mmHg 51%
    16:00 +24°C° 0,1 mm 2 m/S 692 mmHg 52%
    17:00 +21°C° 0,2 mm 2 m/S 691 mmHg 58%
    18:00 +19°C° 0,2 mm 2 m/S 691 mmHg 65%
    19:00 +17°C° 0,2 mm 2 m/S 691 mmHg 71%
    20:00 +17°C° 0,2 mm 2 m/S 691 mmHg 72%
    21:00 +16°C° 0,2 mm 2 m/S 692 mmHg 74%
    22:00 +15°C° 0,2 mm 2 m/S 692 mmHg 76%
    23:00 +15°C° 0,2 mm 2 m/S 692 mmHg 76%

    Morgen, 28 April, Samstag

    Zeit Temperatur Niederschläge Wind Luftdruck Luftfeuchtigkeit
    00:00 +15°C° 0,2 mm 2 m/S 692 mmHg 77%
    01:00 +15°C° 0,2 mm 2 m/S 692 mmHg 77%
    02:00 +15°C° 0,3 mm 2 m/S 692 mmHg 78%
    03:00 +14°C° 0,3 mm 2 m/S 692 mmHg 79%
    04:00 +14°C° 0,3 mm 2 m/S 692 mmHg 79%
    05:00 +15°C° 0,1 mm 2 m/S 692 mmHg 76%
    06:00 +17°C° 0,1 mm 2 m/S 692 mmHg 74%
    07:00 +18°C° 0,1 mm 2 m/S 692 mmHg 71%
    08:00 +20°C° 0,1 mm 2 m/S 693 mmHg 63%
    09:00 +21°C° 0,1 mm 2 m/S 693 mmHg 56%
    10:00 +24°C° 0,1 mm 2 m/S 693 mmHg 48%
    11:00 +24°C° 0,2 mm 2 m/S 693 mmHg 45%
    12:00 +25°C° 0,2 mm 2 m/S 693 mmHg 43%
    13:00 +26°C° 0,2 mm 2 m/S 693 mmHg 40%
    14:00 +25°C° 0,3 mm 2 m/S 692 mmHg 43%
    15:00 +25°C° 0,3 mm 2 m/S 692 mmHg 45%
    16:00 +24°C° 0,3 mm 2 m/S 692 mmHg 47%
    17:00 +21°C° 0,4 mm 2 m/S 692 mmHg 53%
    18:00 +21°C° 0,4 mm 1 m/S 691 mmHg 59%
    19:00 +19°C° 0,4 mm 1 m/S 691 mmHg 65%
    20:00 +18°C° 0,1 mm 1 m/S 691 mmHg 66%
    21:00 +18°C° 0,1 mm 1 m/S 692 mmHg 68%
    22:00 +16°C° 0,1 mm 2 m/S 692 mmHg 69%
    23:00 +16°C° 0,2 mm 2 m/S 692 mmHg 70%

    übermorgen, 29 April, Sonntag

    Zeit Temperatur Niederschläge Wind Luftdruck Luftfeuchtigkeit
    00:00 +15°C° 0,2 mm 2 m/S 692 mmHg 71%
    01:00 +15°C° 0,2 mm 2 m/S 691 mmHg 72%
    02:00 +15°C° 0,1 mm 2 m/S 691 mmHg 72%
    03:00 +14°C° 0,1 mm 2 m/S 691 mmHg 73%
    04:00 +14°C° 0,1 mm 2 m/S 691 mmHg 73%
    05:00 +15°C° 0 mm 2 m/S 691 mmHg 71%
    06:00 +16°C° 0 mm 2 m/S 691 mmHg 68%
    07:00 +17°C° 0 mm 2 m/S 691 mmHg 66%
    08:00 +19°C° 0 mm 2 m/S 692 mmHg 59%
    09:00 +20°C° 0 mm 2 m/S 692 mmHg 52%
    10:00 +23°C° 0 mm 2 m/S 692 mmHg 44%
    11:00 +24°C° 0,1 mm 2 m/S 692 mmHg 43%
    12:00 +24°C° 0,1 mm 2 m/S 692 mmHg 41%
    13:00 +25°C° 0,1 mm 2 m/S 691 mmHg 39%
    14:00 +25°C° 0,2 mm 2 m/S 691 mmHg 40%
    15:00 +24°C° 0,2 mm 2 m/S 691 mmHg 42%
    16:00 +24°C° 0,2 mm 2 m/S 691 mmHg 43%
    17:00 +22°C° 0,3 mm 1 m/S 690 mmHg 50%
    18:00 +20°C° 0,3 mm 1 m/S 690 mmHg 57%
    19:00 +18°C° 0,3 mm 1 m/S 690 mmHg 63%
    20:00 +18°C° 0,2 mm 1 m/S 690 mmHg 64%
    21:00 +16°C° 0,2 mm 1 m/S 690 mmHg 65%
    22:00 +16°C° 0,2 mm 1 m/S 691 mmHg 66%
    23:00 +15°C° 0,1 mm 1 m/S 691 mmHg 66%

    30 April, Montag

    Zeit Temperatur Niederschläge Wind Luftdruck Luftfeuchtigkeit
    00:00 +15°C° 0,1 mm 1 m/S 691 mmHg 66%
    01:00 +15°C° 0,1 mm 1 m/S 691 mmHg 66%
    02:00 +14°C° 0,1 mm 1 m/S 690 mmHg 65%
    03:00 +14°C° 0,1 mm 1 m/S 690 mmHg 65%
    04:00 +14°C° 0,1 mm 1 m/S 690 mmHg 65%
    05:00 +15°C° 0 mm 1 m/S 691 mmHg 62%
    06:00 +18°C° 0 mm 1 m/S 691 mmHg 59%
    07:00 +19°C° 0 mm 1 m/S 691 mmHg 57%
    08:00 +20°C° 0 mm 1 m/S 691 mmHg 53%
    09:00 +22°C° 0 mm 1 m/S 691 mmHg 49%
    10:00 +23°C° 0 mm 1 m/S 692 mmHg 45%
    11:00 +24°C° 0,4 mm 2 m/S 692 mmHg 45%
    12:00 +24°C° 0,4 mm 2 m/S 691 mmHg 45%
    13:00 +25°C° 0,4 mm 2 m/S 691 mmHg 44%
    14:00 +24°C° 0,5 mm 2 m/S 691 mmHg 47%
    15:00 +24°C° 0,5 mm 2 m/S 691 mmHg 49%
    16:00 +23°C° 0,5 mm 2 m/S 691 mmHg 51%
    17:00 +20°C° 0,3 mm 2 m/S 690 mmHg 58%
    18:00 +19°C° 0,3 mm 1 m/S 690 mmHg 65%
    19:00 +16°C° 0,3 mm 1 m/S 690 mmHg 72%
    20:00 +16°C° 0,1 mm 1 m/S 690 mmHg 74%
    21:00 +15°C° 0,1 mm 1 m/S 691 mmHg 75%
    22:00 +15°C° 0,1 mm 1 m/S 691 mmHg 76%
    23:00 +15°C° 0 mm 1 m/S 691 mmHg 76%

    1 Mai, Dienstag

    Zeit Temperatur Niederschläge Wind Luftdruck Luftfeuchtigkeit
    00:00 +14°C° 0 mm 1 m/S 691 mmHg 76%
    01:00 +14°C° 0 mm 1 m/S 690 mmHg 75%
    02:00 +14°C° 0 mm 1 m/S 690 mmHg 73%
    03:00 +13°C° 0 mm 1 m/S 690 mmHg 71%
    04:00 +13°C° 0 mm 1 m/S 690 mmHg 69%
    05:00 +15°C° 0 mm 1 m/S 691 mmHg 65%
    06:00 +18°C° 0 mm 1 m/S 691 mmHg 60%
    07:00 +19°C° 0 mm 1 m/S 691 mmHg 56%
    08:00 +21°C° 0 mm 1 m/S 692 mmHg 51%
    09:00 +22°C° 0 mm 1 m/S 692 mmHg 46%
    10:00 +24°C° 0 mm 1 m/S 692 mmHg 42%
    11:00 +24°C° 0 mm 2 m/S 692 mmHg 41%
    12:00 +25°C° 0 mm 2 m/S 692 mmHg 40%
    13:00 +25°C° 0 mm 2 m/S 692 mmHg 39%
    14:00 +25°C° 0 mm 2 m/S 691 mmHg 41%
    15:00 +25°C° 0 mm 2 m/S 691 mmHg 43%
    16:00 +24°C° 0 mm 2 m/S 691 mmHg 45%
    17:00 +21°C° 0 mm 2 m/S 690 mmHg 53%
    18:00 +20°C° 0 mm 1 m/S 690 mmHg 60%
    19:00 +18°C° 0 mm 1 m/S 690 mmHg 67%
    20:00 +16°C° 0 mm 1 m/S 690 mmHg 68%
    21:00 +16°C° 0 mm 1 m/S 690 mmHg 68%
    22:00 +16°C° 0 mm 1 m/S 690 mmHg 68%
    23:00 +15°C° 0 mm 1 m/S 690 mmHg 68%

    2 Mai, Mittwoch

    Zeit Temperatur Niederschläge Wind Luftdruck Luftfeuchtigkeit
    00:00 +15°C° 0 mm 1 m/S 690 mmHg 67%
    01:00 +15°C° 0 mm 1 m/S 690 mmHg 67%
    02:00 +15°C° 0 mm 1 m/S 689 mmHg 67%
    03:00 +15°C° 0 mm 2 m/S 689 mmHg 67%
    04:00 +14°C° 0 mm 2 m/S 689 mmHg 67%
    05:00 +16°C° 0 mm 2 m/S 689 mmHg 65%
    06:00 +18°C° 0 mm 2 m/S 690 mmHg 63%
    07:00 +19°C° 0 mm 2 m/S 690 mmHg 62%
    08:00 +21°C° 0 mm 2 m/S 690 mmHg 57%
    09:00 +23°C° 0 mm 2 m/S 690 mmHg 52%
    10:00 +25°C° 0 mm 2 m/S 690 mmHg 47%
    11:00 +25°C° 0,2 mm 2 m/S 690 mmHg 47%
    12:00 +25°C° 0,2 mm 2 m/S 690 mmHg 47%
    13:00 +26°C° 0,2 mm 3 m/S 690 mmHg 46%
    14:00 +25°C° 0,5 mm 2 m/S 689 mmHg 50%
    15:00 +24°C° 0,5 mm 2 m/S 689 mmHg 53%
    16:00 +23°C° 0,5 mm 2 m/S 689 mmHg 56%
    17:00 +22°C° 0,5 mm 1 m/S 689 mmHg 62%
    18:00 +20°C° 0,5 mm 1 m/S 688 mmHg 68%
    19:00 +18°C° 0,5 mm 1 m/S 688 mmHg 74%
    20:00 +18°C° 0,1 mm 1 m/S 688 mmHg 74%
    21:00 +18°C° 0,1 mm 1 m/S 688 mmHg 74%
    22:00 +18°C° 0,1 mm 1 m/S 688 mmHg 74%
    23:00 +18°C° 0,2 mm 1 m/S 688 mmHg 73%
    Mehr zeigen